Location: Asheville, NC
(35.6000°N, 82.5500°W)
Time: 23:59:16
(UTC-04:00)

Vanguard 1 Rocket - Pass Details

Date: 13 February 2018
Orbit: 652 x 4225 km, 34.3° (Epoch: 20 May)

Event Time Altitude Azimuth Distance (km) Brightness Sun altitude
Rises 01:33:58 0° 246° (WSW) 7,710 - -65.1°
Reaches altitude 10° 01:38:44 10° 246° (WSW) 6,970 - -64.6°
Maximum altitude 02:04:43 80° 164° (SSE) 4,159 - -61.3°
Exits shadow 02:11:24 61° 94° (E) 4,241 10.5 -60.4°
Drops below altitude 10° 02:26:08 10° 82° (E) 5,952 11.8 -58.1°
Sets 02:29:49 0° 81° (E) 6,603 12.2 -57.5°
